Location: Eboldshausen
(51.7766°N, 10.0050°E)
Time: 21:55:02
(UTC+00:00)

FENGYUN 3A - Visible Passes

Search period start: 19 September 2024 00:00
Search period end: 29 September 2024 00:00
Orbit: 821 x 834 km, 98.6° (Epoch: 19 September)

Date Brightness Start Highest point End Pass type
(mag) Time Alt. Az. Time Alt. Az. Time Alt. Az.
19 Sep 5.0 00:54:29 10° NNE 00:59:12 32° E 00:59:12 32° E visible
19 Sep 4.0 02:34:36 10° N 02:39:45 47° WNW 02:40:44 42° W visible
19 Sep 5.7 04:17:22 10° NNW 04:18:48 11° NW 04:20:14 10° WNW visible
20 Sep 5.4 00:36:23 10° NE 00:40:25 24° E 00:40:25 24° E visible
20 Sep 3.6 02:16:02 10° N 02:21:23 64° WNW 02:21:56 60° WSW visible
20 Sep 5.5 03:57:53 10° NNW 04:00:40 14° NW 04:03:27 10° W visible
21 Sep 5.8 00:18:29 10° NE 00:21:38 17° E 00:21:38 17° E visible
21 Sep 3.5 01:57:32 10° NNE 02:02:57 86° WNW 02:03:09 83° SW visible
21 Sep 5.2 03:38:53 10° N 03:42:30 19° NW 03:44:40 15° W visible
22 Sep 6.2 00:01:08 10° ENE 00:02:51 12° E 00:02:51 12° E visible
22 Sep 3.7 01:39:06 10° NNE 01:44:22 70° E 01:44:22 70° E visible
22 Sep 4.9 03:20:04 10° N 03:24:18 24° WNW 03:25:54 21° W visible
23 Sep 4.3 01:20:43 10° NNE 01:25:35 50° E 01:25:35 50° E visible
23 Sep 4.5 03:01:21 10° N 03:06:02 31° WNW 03:07:06 29° W visible
24 Sep 4.9 01:02:25 10° NNE 01:06:48 36° E 01:06:48 36° E visible
24 Sep 4.1 02:42:41 10° N 02:47:43 41° WNW 02:48:19 40° W visible
25 Sep 5.4 00:44:14 10° NE 00:48:01 26° ENE 00:48:01 26° ENE visible
25 Sep 3.7 02:24:07 10° N 02:29:22 56° WNW 02:29:32 56° WNW visible
25 Sep 5.6 04:06:17 10° NNW 04:08:33 13° NW 04:10:49 10° WNW visible
26 Sep 5.8 00:26:13 10° NE 00:29:14 19° ENE 00:29:14 19° ENE visible
26 Sep 3.6 02:05:35 10° NNE 02:10:44 74° NW 02:10:44 74° NW visible
26 Sep 5.3 03:47:08 10° NNW 03:50:24 17° NW 03:52:16 14° WNW visible
27 Sep 6.1 00:08:33 10° NE 00:10:26 14° ENE 00:10:26 14° ENE visible
27 Sep 3.8 01:47:06 10° NNE 01:51:57 71° NE 01:51:57 71° NE visible
27 Sep 5.0 03:28:14 10° N 03:32:13 21° NW 03:33:28 20° WNW visible
28 Sep 4.3 01:28:41 10° NNE 01:33:10 52° ENE 01:33:10 52° ENE visible
28 Sep 4.6 03:09:28 10° N 03:13:57 28° WNW 03:14:40 27° WNW visible
